STARLINK-34689

Last updated on Tue Aug 26 2025 00:02:05 GMT+0000 (Coordinated Universal Time)

1 64949U 25158T 25237.56984067 .00027378 00000+0 70080-3 0 9991 2 64949 97.6017 100.1197 0001947 77.1576 282.9887 15.39380305 5801

Satellite not in orbit

STARLINK-34689